TimeMST,TemperatureF,Dew PointF,Humidity,Sea Level PressureIn,VisibilityMPH,Wind Direction,Wind SpeedMPH,Gust SpeedMPH,PrecipitationIn,Events,Conditions,WindDirDegrees,DateUTC
12:56 AM,33.1,25.0,72,29.83,10.0,WSW,16.1,-,N/A,,Clear,240,2014-02-11 07:56:00
1:56 AM,33.1,26.1,75,29.77,10.0,WSW,28.8,36.8,N/A,,Clear,250,2014-02-11 08:56:00
2:56 AM,32.0,26.1,79,29.77,10.0,West,26.5,-,N/A,,Clear,260,2014-02-11 09:56:00
3:56 AM,32.0,26.1,79,29.78,10.0,West,21.9,-,N/A,,Clear,260,2014-02-11 10:56:00
4:56 AM,32.0,26.1,79,29.78,10.0,West,19.6,-,N/A,,Clear,270,2014-02-11 11:56:00
5:56 AM,32.0,26.1,79,29.75,10.0,West,18.4,-,N/A,,Clear,270,2014-02-11 12:56:00
6:56 AM,32.0,27.0,82,29.73,10.0,West,20.7,-,N/A,,Partly Cloudy,260,2014-02-11 13:56:00
7:56 AM,32.0,27.0,82,29.73,10.0,West,19.6,-,N/A,,Scattered Clouds,260,2014-02-11 14:56:00
8:56 AM,28.9,25.0,85,29.79,10.0,North,12.7,-,N/A,,Overcast,350,2014-02-11 15:56:00
9:07 AM,28.9,26.1,89,29.73,2.0,NNW,16.1,-,0.00,Snow,Light Snow,330,2014-02-11 16:07:00
9:09 AM,28.9,26.1,89,29.73,0.8,NW,15.0,-,0.00,Snow,Light Snow,320,2014-02-11 16:09:00
9:16 AM,28.9,27.0,92,29.73,0.5,NW,16.1,-,0.00,Fog-Snow,Light Snow,320,2014-02-11 16:16:00
9:19 AM,28.9,27.0,92,29.73,1.0,NW,16.1,-,0.00,Snow,Light Snow,310,2014-02-11 16:19:00
9:22 AM,30.0,27.0,88,29.72,3.0,NW,17.3,-,0.00,Snow,Light Snow,310,2014-02-11 16:22:00
9:34 AM,30.0,27.0,88,29.72,9.0,WNW,19.6,-,0.00,Snow,Light Snow,300,2014-02-11 16:34:00
9:56 AM,30.9,24.1,76,29.78,8.0,WNW,23.0,-,0.00,,Scattered Clouds,300,2014-02-11 16:56:00
10:37 AM,10.9,6.1,81,29.76,7.0,North,23.0,31.1,N/A,,Partly Cloudy,360,2014-02-11 17:37:00
10:56 AM,7.0,1.9,80,29.92,10.0,North,24.2,-,N/A,,Partly Cloudy,360,2014-02-11 17:56:00
11:56 AM,8.1,3.0,80,29.96,10.0,North,19.6,-,N/A,,Clear,350,2014-02-11 18:56:00
12:56 PM,6.1,-0.0,76,29.98,10.0,North,16.1,-,N/A,,Clear,350,2014-02-11 19:56:00
1:56 PM,7.0,-0.0,73,30.00,10.0,North,11.5,-,N/A,,Clear,350,2014-02-11 20:56:00
2:56 PM,9.0,1.0,70,30.00,10.0,North,5.8,-,N/A,,Clear,360,2014-02-11 21:56:00
3:56 PM,12.0,3.0,67,29.99,10.0,North,3.5,-,N/A,,Clear,10,2014-02-11 22:56:00
4:56 PM,10.9,3.0,70,30.01,10.0,NNE,4.6,-,N/A,,Clear,30,2014-02-11 23:56:00
5:56 PM,10.0,3.0,73,30.03,10.0,Calm,Calm,-,N/A,,Clear,0,2014-02-12 00:56:00
6:56 PM,19.0,10.0,68,30.01,10.0,SW,9.2,-,N/A,,Clear,230,2014-02-12 01:56:00
7:56 PM,27.0,16.0,63,29.97,10.0,West,20.7,-,N/A,,Clear,260,2014-02-12 02:56:00
8:56 PM,28.9,16.0,58,29.97,10.0,WSW,23.0,-,N/A,,Clear,250,2014-02-12 03:56:00
9:56 PM,28.9,18.0,64,29.94,7.0,WSW,31.1,-,N/A,,Clear,250,2014-02-12 04:56:00
10:56 PM,30.0,16.0,56,29.97,10.0,WSW,21.9,35.7,N/A,,Partly Cloudy,250,2014-02-12 05:56:00
11:56 PM,30.9,14.0,50,29.94,10.0,WSW,29.9,38.0,N/A,,Clear,250,2014-02-12 06:56:00